Flag for Guadeloupe Weather past 2 weeks in Basse-Terre, Guadeloupe

Now
73 °F

Passing clouds.


Feels Like: 70 °F
Forecast: 79 / 83 °F
Wind: No wind

Location: Le Raizet - Guadeloupe

Current Time: Sep 20, 2014 at 4:08:32 AM

Latest Report: Sep 20, 2014 at 3:30 AM


Visibility: N/A

Pressure: 29.89 "Hg

Humidity: 94%

Dew point: 72 °F

Location of Basse-TerreLocation

Historic Weather in Basse-Terre — Graph

°F

Basse-Terre temperature yesterday

Maximum temperature yesterday: 86 °F (at 2:00 PM)
Minimum temperature yesterday: 73 °F (at 10:30 AM)
Average temperature yesterday: 79 °F

Past Weeks' High & Low Weather Summary

 TemperatureHumidityPressure
High90 °F (Sep 11, 1:00 PM)100% (Sep 20, 1:00 AM)30.07 "Hg (Sep 20, 1:00 AM)
Low73 °F (Sep 6, 3:00 AM)49% (Sep 9, 12:30 PM)29.86 "Hg (Sep 17, 3:36 PM)
Average81 °F78%29.96 "Hg
* Reported Sep 5 3:00 AM — Sep 20 3:00 AM, Basse-Terre, Weather by CustomWeather, © 2014

Note: Actual official high and low records may vary slightly from our data, if they occured in-between our weather recording intervals... More about our weather records

Advertising

Basse-Terre weather history for previous 24 hours

 ConditionsComfort  
Time TempWeatherWind HumidityBarometerVisibility
3:00 AM
Sep 20
73 °FPassing clouds.2 mph94%29.92 "HgN/A
2:30 AM73 °FPartly cloudy.No wind94%29.92 "HgN/A
2:00 AM73 °FPassing clouds.1 mph94%29.92 "HgN/A
1:30 AM73 °FClear.No wind94%29.92 "HgN/A
1:00 AM73 °FClear.1 mph100%29.92 "HgN/A
12:30 AM73 °FClear.No wind94%29.95 "HgN/A
12:00 AM73 °FClear.1 mph94%29.95 "HgN/A
11:30 PM
Sep 19
73 °FClear.2 mph94%29.95 "HgN/A
11:00 PM75 °FClear.1 mph89%29.98 "HgN/A
10:30 PM75 °FClear.No wind94%29.98 "HgN/A
10:00 PM75 °FClear.No wind94%29.98 "HgN/A
9:00 PM75 °FClear.2 mph94%29.98 "HgN/A
8:30 PM75 °FClear.5 mph94%29.98 "HgN/A
6:30 PM77 °FThunderstorms. Partly cloudy.3 mph83%29.95 "HgN/A
6:00 PM79 °FThunderstorms. Broken clouds.9 mph79%29.98 "HgN/A
5:30 PM79 °FSprinkles. Broken clouds.15 mph74%29.95 "HgN/A
5:00 PM84 °FBroken clouds.14 mph66%29.95 "HgN/A
4:30 PM84 °FBroken clouds.8 mph66%29.92 "HgN/A
4:00 PM86 °FBroken clouds.12 mph62%29.92 "HgN/A
3:30 PM86 °FBroken clouds.12 mph62%29.92 "HgN/A
3:06 PM86 °FBroken clouds.12 mph62%29.92 "HgN/A
2:47 PM86 °FBroken clouds.10 mph62%29.92 "HgN/A
2:00 PM86 °FBroken clouds.10 mph62%29.92 "HgN/A
1:30 PM84 °FBroken clouds.8 mph70%29.92 "HgN/A
1:00 PM84 °FBroken clouds.9 mph70%29.95 "HgN/A
12:30 PM82 °FBroken clouds.10 mph74%29.95 "HgN/A
12:00 PM81 °FPartly sunny.3 mph89%29.98 "HgN/A
11:37 AM77 °FSprinkles. Partly sunny.2 mph94%29.98 "HgN/A
11:00 AM75 °FSprinkles. Partly sunny.5 mph94%30.01 "HgN/A
10:30 AM73 °FThunderstorms. Partly sunny.6 mph94%30.01 "Hg3 mi
10:00 AM75 °FThunderstorms. Partly sunny.18 mph83%30.01 "Hg1 mi
9:08 AM79 °FPartly sunny.5 mph84%29.98 "HgN/A
8:30 AM77 °FSprinkles. Partly sunny.9 mph83%29.98 "HgN/A
8:08 AM77 °FPartly sunny.12 mph79%29.98 "HgN/A
7:30 AM81 °FPartly sunny.5 mph79%29.95 "HgN/A
7:00 AM79 °FPassing clouds.3 mph84%29.95 "HgN/A
6:30 AM77 °FBroken clouds.3 mph94%29.95 "HgN/A
6:00 AM77 °FScattered clouds.3 mph89%29.92 "HgN/A
5:30 AM77 °FWarm.No wind89%29.92 "HgN/A
5:00 AM77 °FPassing clouds.No wind89%29.92 "HgN/A
4:30 AM77 °FPassing clouds.No wind89%29.92 "HgN/A
4:00 AM77 °FPassing clouds.3 mph89%29.89 "HgN/A
Weather by CustomWeather, © 2014

See weather overviewHow to use our weather pages